2023/01/30 00:00:00,86.2,-1.3
2023/01/30 00:10:00,86.1,-1.2
2023/01/30 00:20:00,86.0,-1.5
2023/01/30 00:30:00,85.9,-1.2
2023/01/30 00:40:00,85.9,-1.4
2023/01/30 00:50:00,85.8,-1.0
2023/01/30 01:00:00,85.8,-1.4
2023/01/30 01:10:00,85.7,-1.1
2023/01/30 01:20:00,85.7,-1.6
2023/01/30 01:30:00,85.6,-1.7
2023/01/30 01:40:00,85.6,-1.7
2023/01/30 01:50:00,85.5,-1.7
2023/01/30 02:00:00,85.5,-2.0
2023/01/30 02:10:00,85.4,-2.4
2023/01/30 02:20:00,85.4,-2.4
2023/01/30 02:30:00,85.5,-2.6
2023/01/30 02:40:00,85.5,-2.9
2023/01/30 02:50:00,85.5,-2.9
2023/01/30 03:00:00,85.4,-3.1
2023/01/30 03:10:00,85.3,-3.1
2023/01/30 03:20:00,85.3,-3.1
2023/01/30 03:30:00,85.2,-3.0
2023/01/30 03:40:00,85.2,-3.0
2023/01/30 03:50:00,85.2,-2.9
2023/01/30 04:00:00,85.1,-2.9
2023/01/30 04:10:00,85.1,-2.9
2023/01/30 04:20:00,85.1,-2.1
2023/01/30 04:30:00,85.0,-2.5
2023/01/30 04:40:00,84.9,-2.5
2023/01/30 04:50:00,84.9,-2.3
2023/01/30 05:00:00,84.8,-2.4
2023/01/30 05:10:00,84.7,-2.2
2023/01/30 05:20:00,85.0,-2.2
2023/01/30 05:30:00,85.2,-2.0
2023/01/30 05:40:00,85.2,-2.0
2023/01/30 05:50:00,85.4,-2.0
2023/01/30 06:00:00,85.6,-1.9
2023/01/30 06:10:00,85.9,-2.0
2023/01/30 06:20:00,85.9,-1.7
2023/01/30 06:30:00,85.9,-1.8
2023/01/30 06:40:00,85.9,-1.8
2023/01/30 06:50:00,85.8,-1.7
2023/01/30 07:00:00,85.8,-1.6
2023/01/30 07:10:00,85.7,-1.5
2023/01/30 07:20:00,85.5,-1.6
2023/01/30 07:30:00,85.4,-1.3
2023/01/30 07:40:00,85.4,-1.1
2023/01/30 07:50:00,85.4,-1.3
2023/01/30 08:00:00,85.3,-1.3
2023/01/30 08:10:00,85.3,-0.9
2023/01/30 08:20:00,85.8,-0.9
2023/01/30 08:30:00,86.3,-0.8
2023/01/30 08:40:00,86.8,-0.6
2023/01/30 08:50:00,87.4,-0.4
2023/01/30 09:00:00,88.6,-0.3
2023/01/30 09:10:00,88.8,-0.2
2023/01/30 09:20:00,89.0,-0.2
2023/01/30 09:30:00,89.5, 0.2
2023/01/30 09:40:00,89.7, 0.4
2023/01/30 09:50:00,89.9, 0.7
2023/01/30 10:00:00,89.9, 0.8
2023/01/30 10:10:00,90.0, 1.3
2023/01/30 10:20:00,89.9, 1.7
2023/01/30 10:30:00,90.0, 1.3
2023/01/30 10:40:00,90.4, 1.4
2023/01/30 10:50:00,91.2, 1.6
2023/01/30 11:00:00,91.6, 1.5
2023/01/30 11:10:00,92.0, 1.9
2023/01/30 11:20:00,92.1, 1.3
2023/01/30 11:30:00,92.4, 1.2
2023/01/30 11:40:00,92.7, 1.3
2023/01/30 11:50:00,93.1, 1.4
2023/01/30 12:00:00,94.2, 1.2
2023/01/30 12:10:00,95.1, 1.0
2023/01/30 12:20:00,95.3, 1.8
2023/01/30 12:30:00,95.7, 1.5
2023/01/30 12:40:00,96.1, 1.7
2023/01/30 12:50:00,96.1, 2.1
2023/01/30 13:00:00,96.2, 1.7
2023/01/30 13:10:00,96.9, 1.4
2023/01/30 13:20:00,97.6, 1.7
2023/01/30 13:30:00,97.8, 1.4
2023/01/30 13:40:00,49.1, 1.7
2023/01/30 13:50:00,98.5, 2.5
2023/01/30 14:00:00,98.4, 1.9
2023/01/30 14:10:00,98.3, 2.0
2023/01/30 14:20:00,98.4, 2.0
2023/01/30 14:30:00,98.4, 2.4
2023/01/30 14:40:00,98.3, 2.4
2023/01/30 14:50:00,98.1, 2.3
2023/01/30 15:00:00,98.0, 2.3
2023/01/30 15:10:00,97.8, 2.6
2023/01/30 15:20:00,97.8, 2.2
2023/01/30 15:30:00,97.6, 1.9
2023/01/30 18:10:00,70.8,-0.1
2023/01/30 18:20:00,101.3,-0.1
2023/01/30 18:30:00,101.6,-0.2
2023/01/30 18:40:00,101.8,-0.1
2023/01/30 18:50:00,102.3,-0.2
2023/01/30 19:00:00,102.1,-0.3
2023/01/30 19:10:00,102.0,-0.2
2023/01/30 19:20:00,101.9,-0.3
2023/01/30 19:30:00,101.8, 0.0
2023/01/30 19:40:00,101.8,-0.3
2023/01/30 19:50:00,101.8, 0.0
2023/01/30 20:00:00,101.6,-0.5
2023/01/30 20:10:00,101.5,-0.4
2023/01/30 20:20:00,101.5,-0.2
2023/01/30 20:30:00,101.4,-0.3
2023/01/30 20:40:00,101.3,-0.2
2023/01/30 20:50:00,101.3,-0.4
2023/01/30 21:00:00,101.2,-0.4
2023/01/30 21:10:00,101.1,-0.3
2023/01/30 21:20:00,101.0,-0.2
2023/01/30 21:30:00,100.9,-0.3
2023/01/30 21:40:00,101.0,-0.4
2023/01/30 21:50:00,101.0,-0.4
2023/01/30 22:00:00,101.0,-0.4
2023/01/30 22:10:00,100.9,-0.4
2023/01/30 22:20:00,100.8,-0.2
2023/01/30 22:30:00,101.2,-0.5
2023/01/30 22:40:00,101.7,-0.4
2023/01/30 22:50:00,102.0,-0.4
2023/01/30 23:00:00,102.1,-0.6
2023/01/30 23:10:00,101.9,-0.6
2023/01/30 23:20:00,101.7,-1.0
2023/01/30 23:30:00,101.5,-0.9
2023/01/30 23:40:00,101.3,-1.0
2023/01/30 23:50:00,101.3,-0.9
